Index of /20260427/WXO-DD/model_rdps/10km/18/048
Name Last modified Size Description
Parent Directory -
20260427T18Z_MSC_RDPS_AbsoluteVorticity_IsbL-0250_RLatLon0.09_PT048H.grib2 2026-04-27 20:56 629K
20260427T18Z_MSC_RDPS_AbsoluteVorticity_IsbL-0500_RLatLon0.09_PT048H.grib2 2026-04-27 20:56 566K
20260427T18Z_MSC_RDPS_AbsoluteVorticity_IsbL-0700_RLatLon0.09_PT048H.grib2 2026-04-27 20:56 614K
20260427T18Z_MSC_RDPS_AbsoluteVorticity_IsbL-0850_RLatLon0.09_PT048H.grib2 2026-04-27 20:56 777K
20260427T18Z_MSC_RDPS_AirTemp_AGL-120m_RLatLon0.09_PT048H.grib2 2026-04-27 20:56 395K
20260427T18Z_MSC_RDPS_AirTemp_AGL-2m_RLatLon0.09_PT048H.grib2 2026-04-27 20:56 630K
20260427T18Z_MSC_RDPS_AirTemp_AGL-40m_RLatLon0.09_PT048H.grib2 2026-04-27 20:56 403K
20260427T18Z_MSC_RDPS_AirTemp_AGL-80m_RLatLon0.09_PT048H.grib2 2026-04-27 20:56 399K
20260427T18Z_MSC_RDPS_AirTemp_IsbL-0001_RLatLon0.09_PT048H.grib2 2026-04-27 20:56 287K
20260427T18Z_MSC_RDPS_AirTemp_IsbL-0005_RLatLon0.09_PT048H.grib2 2026-04-27 20:56 293K
20260427T18Z_MSC_RDPS_AirTemp_IsbL-0010_RLatLon0.09_PT048H.grib2 2026-04-27 20:56 304K
20260427T18Z_MSC_RDPS_AirTemp_IsbL-0020_RLatLon0.09_PT048H.grib2 2026-04-27 20:56 318K
20260427T18Z_MSC_RDPS_AirTemp_IsbL-0030_RLatLon0.09_PT048H.grib2 2026-04-27 20:56 339K
20260427T18Z_MSC_RDPS_AirTemp_IsbL-0050_RLatLon0.09_PT048H.grib2 2026-04-27 20:56 314K
20260427T18Z_MSC_RDPS_AirTemp_IsbL-0100_RLatLon0.09_PT048H.grib2 2026-04-27 20:56 430K
20260427T18Z_MSC_RDPS_AirTemp_IsbL-0150_RLatLon0.09_PT048H.grib2 2026-04-27 20:56 428K
20260427T18Z_MSC_RDPS_AirTemp_IsbL-0175_RLatLon0.09_PT048H.grib2 2026-04-27 20:56 416K
20260427T18Z_MSC_RDPS_AirTemp_IsbL-0200_RLatLon0.09_PT048H.grib2 2026-04-27 20:56 420K
20260427T18Z_MSC_RDPS_AirTemp_IsbL-0225_RLatLon0.09_PT048H.grib2 2026-04-27 20:56 422K
20260427T18Z_MSC_RDPS_AirTemp_IsbL-0250_RLatLon0.09_PT048H.grib2 2026-04-27 20:56 432K
20260427T18Z_MSC_RDPS_AirTemp_IsbL-0275_RLatLon0.09_PT048H.grib2 2026-04-27 20:56 410K
20260427T18Z_MSC_RDPS_AirTemp_IsbL-0300_RLatLon0.09_PT048H.grib2 2026-04-27 20:56 417K
20260427T18Z_MSC_RDPS_AirTemp_IsbL-0350_RLatLon0.09_PT048H.grib2 2026-04-27 20:56 426K
20260427T18Z_MSC_RDPS_AirTemp_IsbL-0400_RLatLon0.09_PT048H.grib2 2026-04-27 20:56 425K
20260427T18Z_MSC_RDPS_AirTemp_IsbL-0450_RLatLon0.09_PT048H.grib2 2026-04-27 20:56 430K
20260427T18Z_MSC_RDPS_AirTemp_IsbL-0500_RLatLon0.09_PT048H.grib2 2026-04-27 20:56 405K
20260427T18Z_MSC_RDPS_AirTemp_IsbL-0550_RLatLon0.09_PT048H.grib2 2026-04-27 20:56 424K
20260427T18Z_MSC_RDPS_AirTemp_IsbL-0600_RLatLon0.09_PT048H.grib2 2026-04-27 20:56 442K
20260427T18Z_MSC_RDPS_AirTemp_IsbL-0650_RLatLon0.09_PT048H.grib2 2026-04-27 20:56 457K
20260427T18Z_MSC_RDPS_AirTemp_IsbL-0700_RLatLon0.09_PT048H.grib2 2026-04-27 20:56 378K
20260427T18Z_MSC_RDPS_AirTemp_IsbL-0750_RLatLon0.09_PT048H.grib2 2026-04-27 20:56 413K
20260427T18Z_MSC_RDPS_AirTemp_IsbL-0800_RLatLon0.09_PT048H.grib2 2026-04-27 20:56 457K
20260427T18Z_MSC_RDPS_AirTemp_IsbL-0850_RLatLon0.09_PT048H.grib2 2026-04-27 20:56 507K
20260427T18Z_MSC_RDPS_AirTemp_IsbL-0875_RLatLon0.09_PT048H.grib2 2026-04-27 20:56 526K
20260427T18Z_MSC_RDPS_AirTemp_IsbL-0900_RLatLon0.09_PT048H.grib2 2026-04-27 20:56 536K
20260427T18Z_MSC_RDPS_AirTemp_IsbL-0925_RLatLon0.09_PT048H.grib2 2026-04-27 20:56 532K
20260427T18Z_MSC_RDPS_AirTemp_IsbL-0950_RLatLon0.09_PT048H.grib2 2026-04-27 20:56 534K
20260427T18Z_MSC_RDPS_AirTemp_IsbL-0970_RLatLon0.09_PT048H.grib2 2026-04-27 20:56 526K
20260427T18Z_MSC_RDPS_AirTemp_IsbL-0985_RLatLon0.09_PT048H.grib2 2026-04-27 20:56 515K
20260427T18Z_MSC_RDPS_AirTemp_IsbL-1000_RLatLon0.09_PT048H.grib2 2026-04-27 20:56 513K
20260427T18Z_MSC_RDPS_AirTemp_IsbL-1015_RLatLon0.09_PT048H.grib2 2026-04-27 20:56 511K
20260427T18Z_MSC_RDPS_Albedo_Sfc_RLatLon0.09_PT048H.grib2 2026-04-27 20:56 159K
20260427T18Z_MSC_RDPS_CAPE_Sfc_RLatLon0.09_PT048H.grib2 2026-04-27 20:56 1.7M
20260427T18Z_MSC_RDPS_CIN_Sfc_RLatLon0.09_PT048H.grib2 2026-04-27 20:56 1.1M
20260427T18Z_MSC_RDPS_CloudWater_EAtm_RLatLon0.09_PT048H.grib2 2026-04-27 20:56 219K
20260427T18Z_MSC_RDPS_ConvectivePrecip-Accum_Sfc_RLatLon0.09_PT048H.grib2 2026-04-27 20:56 1.1M
20260427T18Z_MSC_RDPS_DewPointDepression_AGL-2m_RLatLon0.09_PT048H.grib2 2026-04-27 20:56 421K
20260427T18Z_MSC_RDPS_DewPointDepression_IsbL-0001_RLatLon0.09_PT048H.grib2 2026-04-27 20:56 193
20260427T18Z_MSC_RDPS_DewPointDepression_IsbL-0005_RLatLon0.09_PT048H.grib2 2026-04-27 20:56 193
20260427T18Z_MSC_RDPS_DewPointDepression_IsbL-0010_RLatLon0.09_PT048H.grib2 2026-04-27 20:56 193
20260427T18Z_MSC_RDPS_DewPointDepression_IsbL-0020_RLatLon0.09_PT048H.grib2 2026-04-27 20:56 193
20260427T18Z_MSC_RDPS_DewPointDepression_IsbL-0030_RLatLon0.09_PT048H.grib2 2026-04-27 20:56 193
20260427T18Z_MSC_RDPS_DewPointDepression_IsbL-0050_RLatLon0.09_PT048H.grib2 2026-04-27 20:56 83K
20260427T18Z_MSC_RDPS_DewPointDepression_IsbL-0100_RLatLon0.09_PT048H.grib2 2026-04-27 20:56 131K
20260427T18Z_MSC_RDPS_DewPointDepression_IsbL-0150_RLatLon0.09_PT048H.grib2 2026-04-27 20:56 149K
20260427T18Z_MSC_RDPS_DewPointDepression_IsbL-0175_RLatLon0.09_PT048H.grib2 2026-04-27 20:56 176K
20260427T18Z_MSC_RDPS_DewPointDepression_IsbL-0200_RLatLon0.09_PT048H.grib2 2026-04-27 20:56 216K
20260427T18Z_MSC_RDPS_DewPointDepression_IsbL-0225_RLatLon0.09_PT048H.grib2 2026-04-27 20:56 264K
20260427T18Z_MSC_RDPS_DewPointDepression_IsbL-0250_RLatLon0.09_PT048H.grib2 2026-04-27 20:56 303K
20260427T18Z_MSC_RDPS_DewPointDepression_IsbL-0275_RLatLon0.09_PT048H.grib2 2026-04-27 20:56 311K
20260427T18Z_MSC_RDPS_DewPointDepression_IsbL-0300_RLatLon0.09_PT048H.grib2 2026-04-27 20:56 331K
20260427T18Z_MSC_RDPS_DewPointDepression_IsbL-0350_RLatLon0.09_PT048H.grib2 2026-04-27 20:56 333K
20260427T18Z_MSC_RDPS_DewPointDepression_IsbL-0400_RLatLon0.09_PT048H.grib2 2026-04-27 20:56 340K
20260427T18Z_MSC_RDPS_DewPointDepression_IsbL-0450_RLatLon0.09_PT048H.grib2 2026-04-27 20:56 344K
20260427T18Z_MSC_RDPS_DewPointDepression_IsbL-0500_RLatLon0.09_PT048H.grib2 2026-04-27 20:56 349K
20260427T18Z_MSC_RDPS_DewPointDepression_IsbL-0550_RLatLon0.09_PT048H.grib2 2026-04-27 20:56 362K
20260427T18Z_MSC_RDPS_DewPointDepression_IsbL-0600_RLatLon0.09_PT048H.grib2 2026-04-27 20:56 374K
20260427T18Z_MSC_RDPS_DewPointDepression_IsbL-0650_RLatLon0.09_PT048H.grib2 2026-04-27 20:56 381K
20260427T18Z_MSC_RDPS_DewPointDepression_IsbL-0700_RLatLon0.09_PT048H.grib2 2026-04-27 20:56 393K
20260427T18Z_MSC_RDPS_DewPointDepression_IsbL-0750_RLatLon0.09_PT048H.grib2 2026-04-27 20:56 416K
20260427T18Z_MSC_RDPS_DewPointDepression_IsbL-0800_RLatLon0.09_PT048H.grib2 2026-04-27 20:56 449K
20260427T18Z_MSC_RDPS_DewPointDepression_IsbL-0850_RLatLon0.09_PT048H.grib2 2026-04-27 20:56 475K
20260427T18Z_MSC_RDPS_DewPointDepression_IsbL-0875_RLatLon0.09_PT048H.grib2 2026-04-27 20:56 475K
20260427T18Z_MSC_RDPS_DewPointDepression_IsbL-0900_RLatLon0.09_PT048H.grib2 2026-04-27 20:56 468K
20260427T18Z_MSC_RDPS_DewPointDepression_IsbL-0925_RLatLon0.09_PT048H.grib2 2026-04-27 20:56 455K
20260427T18Z_MSC_RDPS_DewPointDepression_IsbL-0950_RLatLon0.09_PT048H.grib2 2026-04-27 20:56 448K
20260427T18Z_MSC_RDPS_DewPointDepression_IsbL-0970_RLatLon0.09_PT048H.grib2 2026-04-27 20:56 438K
20260427T18Z_MSC_RDPS_DewPointDepression_IsbL-0985_RLatLon0.09_PT048H.grib2 2026-04-27 20:56 434K
20260427T18Z_MSC_RDPS_DewPointDepression_IsbL-1000_RLatLon0.09_PT048H.grib2 2026-04-27 20:56 431K
20260427T18Z_MSC_RDPS_DewPointDepression_IsbL-1015_RLatLon0.09_PT048H.grib2 2026-04-27 20:56 424K
20260427T18Z_MSC_RDPS_DewPoint_AGL-2m_RLatLon0.09_PT048H.grib2 2026-04-27 20:56 402K
20260427T18Z_MSC_RDPS_DownwardLongwaveRadiationFlux-Accum_Sfc_RLatLon0.09_PT048H.grib2 2026-04-27 20:56 371K
20260427T18Z_MSC_RDPS_DownwardShortwaveRadiationFlux-Accum_NTAtm_RLatLon0.09_PT048H.grib2 2026-04-27 20:56 120K
20260427T18Z_MSC_RDPS_DownwardShortwaveRadiationFlux-Accum_Sfc_RLatLon0.09_PT048H.grib2 2026-04-27 20:56 558K
20260427T18Z_MSC_RDPS_FreezingRain-Accum12h_Sfc_RLatLon0.09_PT048H.grib2 2026-04-27 20:56 85K
20260427T18Z_MSC_RDPS_FreezingRain-Accum1h_Sfc_RLatLon0.09_PT048H.grib2 2026-04-27 20:56 8.5K
20260427T18Z_MSC_RDPS_FreezingRain-Accum24h_Sfc_RLatLon0.09_PT048H.grib2 2026-04-27 20:56 108K
20260427T18Z_MSC_RDPS_FreezingRain-Accum3h_Sfc_RLatLon0.09_PT048H.grib2 2026-04-27 20:56 17K
20260427T18Z_MSC_RDPS_FreezingRain-Accum6h_Sfc_RLatLon0.09_PT048H.grib2 2026-04-27 20:56 55K
20260427T18Z_MSC_RDPS_FreezingRain-Accum_Sfc_RLatLon0.09_PT048H.grib2 2026-04-27 20:56 163K
20260427T18Z_MSC_RDPS_GeopotentialHeight_IsbL-0001_RLatLon0.09_PT048H.grib2 2026-04-27 20:56 245K
20260427T18Z_MSC_RDPS_GeopotentialHeight_IsbL-0005_RLatLon0.09_PT048H.grib2 2026-04-27 20:56 339K
20260427T18Z_MSC_RDPS_GeopotentialHeight_IsbL-0010_RLatLon0.09_PT048H.grib2 2026-04-27 20:56 340K
20260427T18Z_MSC_RDPS_GeopotentialHeight_IsbL-0020_RLatLon0.09_PT048H.grib2 2026-04-27 20:56 306K
20260427T18Z_MSC_RDPS_GeopotentialHeight_IsbL-0030_RLatLon0.09_PT048H.grib2 2026-04-27 20:56 307K
20260427T18Z_MSC_RDPS_GeopotentialHeight_IsbL-0050_RLatLon0.09_PT048H.grib2 2026-04-27 20:56 341K
20260427T18Z_MSC_RDPS_GeopotentialHeight_IsbL-0100_RLatLon0.09_PT048H.grib2 2026-04-27 20:56 286K
20260427T18Z_MSC_RDPS_GeopotentialHeight_IsbL-0150_RLatLon0.09_PT048H.grib2 2026-04-27 20:56 231K
20260427T18Z_MSC_RDPS_GeopotentialHeight_IsbL-0175_RLatLon0.09_PT048H.grib2 2026-04-27 20:56 265K
20260427T18Z_MSC_RDPS_GeopotentialHeight_IsbL-0200_RLatLon0.09_PT048H.grib2 2026-04-27 20:56 267K
20260427T18Z_MSC_RDPS_GeopotentialHeight_IsbL-0225_RLatLon0.09_PT048H.grib2 2026-04-27 20:56 268K
20260427T18Z_MSC_RDPS_GeopotentialHeight_IsbL-0250_RLatLon0.09_PT048H.grib2 2026-04-27 20:56 269K
20260427T18Z_MSC_RDPS_GeopotentialHeight_IsbL-0275_RLatLon0.09_PT048H.grib2 2026-04-27 20:56 267K
20260427T18Z_MSC_RDPS_GeopotentialHeight_IsbL-0300_RLatLon0.09_PT048H.grib2 2026-04-27 20:56 267K
20260427T18Z_MSC_RDPS_GeopotentialHeight_IsbL-0350_RLatLon0.09_PT048H.grib2 2026-04-27 20:56 233K
20260427T18Z_MSC_RDPS_GeopotentialHeight_IsbL-0400_RLatLon0.09_PT048H.grib2 2026-04-27 20:56 228K
20260427T18Z_MSC_RDPS_GeopotentialHeight_IsbL-0450_RLatLon0.09_PT048H.grib2 2026-04-27 20:56 296K
20260427T18Z_MSC_RDPS_GeopotentialHeight_IsbL-0500_RLatLon0.09_PT048H.grib2 2026-04-27 20:56 292K
20260427T18Z_MSC_RDPS_GeopotentialHeight_IsbL-0550_RLatLon0.09_PT048H.grib2 2026-04-27 20:56 288K
20260427T18Z_MSC_RDPS_GeopotentialHeight_IsbL-0600_RLatLon0.09_PT048H.grib2 2026-04-27 20:56 284K
20260427T18Z_MSC_RDPS_GeopotentialHeight_IsbL-0650_RLatLon0.09_PT048H.grib2 2026-04-27 20:56 255K
20260427T18Z_MSC_RDPS_GeopotentialHeight_IsbL-0700_RLatLon0.09_PT048H.grib2 2026-04-27 20:56 336K
20260427T18Z_MSC_RDPS_GeopotentialHeight_IsbL-0750_RLatLon0.09_PT048H.grib2 2026-04-27 20:56 339K
20260427T18Z_MSC_RDPS_GeopotentialHeight_IsbL-0800_RLatLon0.09_PT048H.grib2 2026-04-27 20:56 347K
20260427T18Z_MSC_RDPS_GeopotentialHeight_IsbL-0850_RLatLon0.09_PT048H.grib2 2026-04-27 20:56 358K
20260427T18Z_MSC_RDPS_GeopotentialHeight_IsbL-0875_RLatLon0.09_PT048H.grib2 2026-04-27 20:56 362K
20260427T18Z_MSC_RDPS_GeopotentialHeight_IsbL-0900_RLatLon0.09_PT048H.grib2 2026-04-27 20:56 366K
20260427T18Z_MSC_RDPS_GeopotentialHeight_IsbL-0925_RLatLon0.09_PT048H.grib2 2026-04-27 20:56 367K
20260427T18Z_MSC_RDPS_GeopotentialHeight_IsbL-0950_RLatLon0.09_PT048H.grib2 2026-04-27 20:56 373K
20260427T18Z_MSC_RDPS_GeopotentialHeight_IsbL-0970_RLatLon0.09_PT048H.grib2 2026-04-27 20:56 414K
20260427T18Z_MSC_RDPS_GeopotentialHeight_IsbL-0985_RLatLon0.09_PT048H.grib2 2026-04-27 20:56 423K
20260427T18Z_MSC_RDPS_GeopotentialHeight_IsbL-1000_RLatLon0.09_PT048H.grib2 2026-04-27 20:56 436K
20260427T18Z_MSC_RDPS_GeopotentialHeight_IsbL-1015_RLatLon0.09_PT048H.grib2 2026-04-27 20:56 452K
20260427T18Z_MSC_RDPS_Humidex_Sfc_RLatLon0.09_PT048H.grib2 2026-04-27 20:56 2.4M
20260427T18Z_MSC_RDPS_IcePellets-Accum12h_Sfc_RLatLon0.09_PT048H.grib2 2026-04-27 20:56 13K
20260427T18Z_MSC_RDPS_IcePellets-Accum1h_Sfc_RLatLon0.09_PT048H.grib2 2026-04-27 20:56 2.4K
20260427T18Z_MSC_RDPS_IcePellets-Accum24h_Sfc_RLatLon0.09_PT048H.grib2 2026-04-27 20:56 19K
20260427T18Z_MSC_RDPS_IcePellets-Accum3h_Sfc_RLatLon0.09_PT048H.grib2 2026-04-27 20:56 4.7K
20260427T18Z_MSC_RDPS_IcePellets-Accum6h_Sfc_RLatLon0.09_PT048H.grib2 2026-04-27 20:56 7.3K
20260427T18Z_MSC_RDPS_IcePellets-Accum_Sfc_RLatLon0.09_PT048H.grib2 2026-04-27 20:56 30K
20260427T18Z_MSC_RDPS_KIndex_Sfc_RLatLon0.09_PT048H.grib2 2026-04-27 20:56 2.5M
20260427T18Z_MSC_RDPS_LatentHeatNetFlux_Sfc_RLatLon0.09_PT048H.grib2 2026-04-27 20:56 305K
20260427T18Z_MSC_RDPS_LiftedIndex-MU-VT_IsbL-0500_RLatLon0.09_PT048H.grib2 2026-04-27 20:56 2.4M
20260427T18Z_MSC_RDPS_NetLongwaveRadiationFlux-Accum_Sfc_RLatLon0.09_PT048H.grib2 2026-04-27 20:56 542K
20260427T18Z_MSC_RDPS_NetShortwaveRadiationFlux-Accum_Sfc_RLatLon0.09_PT048H.grib2 2026-04-27 20:56 560K
20260427T18Z_MSC_RDPS_PlanetaryBoundaryLayerHeight_Sfc_RLatLon0.09_PT048H.grib2 2026-04-27 20:56 1.0M
20260427T18Z_MSC_RDPS_Precip-Accum12h_Sfc_RLatLon0.09_PT048H.grib2 2026-04-27 20:56 1.7M
20260427T18Z_MSC_RDPS_Precip-Accum1h_Sfc_RLatLon0.09_PT048H.grib2 2026-04-27 20:56 1.3M
20260427T18Z_MSC_RDPS_Precip-Accum24h_Sfc_RLatLon0.09_PT048H.grib2 2026-04-27 20:56 1.8M
20260427T18Z_MSC_RDPS_Precip-Accum3h_Sfc_RLatLon0.09_PT048H.grib2 2026-04-27 20:56 1.4M
20260427T18Z_MSC_RDPS_Precip-Accum6h_Sfc_RLatLon0.09_PT048H.grib2 2026-04-27 20:56 1.5M
20260427T18Z_MSC_RDPS_Precip-Accum_Sfc_RLatLon0.09_PT048H.grib2 2026-04-27 20:56 1.9M
20260427T18Z_MSC_RDPS_PrecipRate_Sfc_RLatLon0.09_PT048H.grib2 2026-04-27 20:56 184K
20260427T18Z_MSC_RDPS_PrecipType-Instant_Sfc_RLatLon0.09_PT048H.grib2 2026-04-27 20:56 565K
20260427T18Z_MSC_RDPS_Pressure-Trend3h_Sfc_RLatLon0.09_PT048H.grib2 2026-04-27 20:56 1.2M
20260427T18Z_MSC_RDPS_Pressure_MSL_RLatLon0.09_PT048H.grib2 2026-04-27 20:56 332K
20260427T18Z_MSC_RDPS_Pressure_PVU-1.5_RLatLon0.09_PT048H.grib2 2026-04-27 20:56 2.3M
20260427T18Z_MSC_RDPS_Pressure_PVU-1_RLatLon0.09_PT048H.grib2 2026-04-27 20:56 2.4M
20260427T18Z_MSC_RDPS_Pressure_PVU-2_RLatLon0.09_PT048H.grib2 2026-04-27 20:56 2.4M
20260427T18Z_MSC_RDPS_Pressure_Sfc_RLatLon0.09_PT048H.grib2 2026-04-27 20:56 500K
20260427T18Z_MSC_RDPS_RadiativeTemp_Sfc_RLatLon0.09_PT048H.grib2 2026-04-27 20:56 328K
20260427T18Z_MSC_RDPS_Rain-Accum12h_Sfc_RLatLon0.09_PT048H.grib2 2026-04-27 20:56 1.1M
20260427T18Z_MSC_RDPS_Rain-Accum1h_Sfc_RLatLon0.09_PT048H.grib2 2026-04-27 20:56 609K
20260427T18Z_MSC_RDPS_Rain-Accum24h_Sfc_RLatLon0.09_PT048H.grib2 2026-04-27 20:56 1.3M
20260427T18Z_MSC_RDPS_Rain-Accum3h_Sfc_RLatLon0.09_PT048H.grib2 2026-04-27 20:56 691K
20260427T18Z_MSC_RDPS_Rain-Accum6h_Sfc_RLatLon0.09_PT048H.grib2 2026-04-27 20:56 909K
20260427T18Z_MSC_RDPS_Rain-Accum_Sfc_RLatLon0.09_PT048H.grib2 2026-04-27 20:56 1.5M
20260427T18Z_MSC_RDPS_RelativeHumidity_AGL-2m_RLatLon0.09_PT048H.grib2 2026-04-27 20:56 1.0M
20260427T18Z_MSC_RDPS_RelativeHumidity_IsbL-0010_RLatLon0.09_PT048H.grib2 2026-04-27 20:56 636K
20260427T18Z_MSC_RDPS_RelativeHumidity_IsbL-0020_RLatLon0.09_PT048H.grib2 2026-04-27 20:56 646K
20260427T18Z_MSC_RDPS_RelativeHumidity_IsbL-0030_RLatLon0.09_PT048H.grib2 2026-04-27 20:56 606K
20260427T18Z_MSC_RDPS_RelativeHumidity_IsbL-0050_RLatLon0.09_PT048H.grib2 2026-04-27 20:56 321K
20260427T18Z_MSC_RDPS_RelativeHumidity_IsbL-0100_RLatLon0.09_PT048H.grib2 2026-04-27 20:56 285K
20260427T18Z_MSC_RDPS_RelativeHumidity_IsbL-0150_RLatLon0.09_PT048H.grib2 2026-04-27 20:56 415K
20260427T18Z_MSC_RDPS_RelativeHumidity_IsbL-0175_RLatLon0.09_PT048H.grib2 2026-04-27 20:56 482K
20260427T18Z_MSC_RDPS_RelativeHumidity_IsbL-0200_RLatLon0.09_PT048H.grib2 2026-04-27 20:56 553K
20260427T18Z_MSC_RDPS_RelativeHumidity_IsbL-0225_RLatLon0.09_PT048H.grib2 2026-04-27 20:56 624K
20260427T18Z_MSC_RDPS_RelativeHumidity_IsbL-0250_RLatLon0.09_PT048H.grib2 2026-04-27 20:56 699K
20260427T18Z_MSC_RDPS_RelativeHumidity_IsbL-0275_RLatLon0.09_PT048H.grib2 2026-04-27 20:56 729K
20260427T18Z_MSC_RDPS_RelativeHumidity_IsbL-0300_RLatLon0.09_PT048H.grib2 2026-04-27 20:56 775K
20260427T18Z_MSC_RDPS_RelativeHumidity_IsbL-0350_RLatLon0.09_PT048H.grib2 2026-04-27 20:56 788K
20260427T18Z_MSC_RDPS_RelativeHumidity_IsbL-0400_RLatLon0.09_PT048H.grib2 2026-04-27 20:56 797K
20260427T18Z_MSC_RDPS_RelativeHumidity_IsbL-0450_RLatLon0.09_PT048H.grib2 2026-04-27 20:56 794K
20260427T18Z_MSC_RDPS_RelativeHumidity_IsbL-0500_RLatLon0.09_PT048H.grib2 2026-04-27 20:56 799K
20260427T18Z_MSC_RDPS_RelativeHumidity_IsbL-0550_RLatLon0.09_PT048H.grib2 2026-04-27 20:56 817K
20260427T18Z_MSC_RDPS_RelativeHumidity_IsbL-0600_RLatLon0.09_PT048H.grib2 2026-04-27 20:56 846K
20260427T18Z_MSC_RDPS_RelativeHumidity_IsbL-0650_RLatLon0.09_PT048H.grib2 2026-04-27 20:56 848K
20260427T18Z_MSC_RDPS_RelativeHumidity_IsbL-0700_RLatLon0.09_PT048H.grib2 2026-04-27 20:56 873K
20260427T18Z_MSC_RDPS_RelativeHumidity_IsbL-0750_RLatLon0.09_PT048H.grib2 2026-04-27 20:56 920K
20260427T18Z_MSC_RDPS_RelativeHumidity_IsbL-0800_RLatLon0.09_PT048H.grib2 2026-04-27 20:56 1.0M
20260427T18Z_MSC_RDPS_RelativeHumidity_IsbL-0850_RLatLon0.09_PT048H.grib2 2026-04-27 20:56 1.0M
20260427T18Z_MSC_RDPS_RelativeHumidity_IsbL-0875_RLatLon0.09_PT048H.grib2 2026-04-27 20:56 1.1M
20260427T18Z_MSC_RDPS_RelativeHumidity_IsbL-0900_RLatLon0.09_PT048H.grib2 2026-04-27 20:56 1.1M
20260427T18Z_MSC_RDPS_RelativeHumidity_IsbL-0925_RLatLon0.09_PT048H.grib2 2026-04-27 20:56 1.1M
20260427T18Z_MSC_RDPS_RelativeHumidity_IsbL-0950_RLatLon0.09_PT048H.grib2 2026-04-27 20:56 1.1M
20260427T18Z_MSC_RDPS_RelativeHumidity_IsbL-0970_RLatLon0.09_PT048H.grib2 2026-04-27 20:56 1.0M
20260427T18Z_MSC_RDPS_RelativeHumidity_IsbL-0985_RLatLon0.09_PT048H.grib2 2026-04-27 20:56 1.0M
20260427T18Z_MSC_RDPS_RelativeHumidity_IsbL-1000_RLatLon0.09_PT048H.grib2 2026-04-27 20:56 1.0M
20260427T18Z_MSC_RDPS_RelativeHumidity_IsbL-1015_RLatLon0.09_PT048H.grib2 2026-04-27 20:56 1.0M
20260427T18Z_MSC_RDPS_Runoff-Accum_Sfc_RLatLon0.09_PT048H.grib2 2026-04-27 20:56 68K
20260427T18Z_MSC_RDPS_SWEATIndex_Sfc_RLatLon0.09_PT048H.grib2 2026-04-27 20:56 2.4M
20260427T18Z_MSC_RDPS_SeeingIndex_EAtm_RLatLon0.09_PT048H.grib2 2026-04-27 20:56 1.0M
20260427T18Z_MSC_RDPS_SensibleHeatNetFlux_Sfc_RLatLon0.09_PT048H.grib2 2026-04-27 20:56 365K
20260427T18Z_MSC_RDPS_ShowalterIndex_IsbL-0500_RLatLon0.09_PT048H.grib2 2026-04-27 20:56 2.6M
20260427T18Z_MSC_RDPS_SkyTransparencyIndex_EAtm_RLatLon0.09_PT048H.grib2 2026-04-27 20:56 686K
20260427T18Z_MSC_RDPS_Snow-Accum12h_Sfc_RLatLon0.09_PT048H.grib2 2026-04-27 20:56 646K
20260427T18Z_MSC_RDPS_Snow-Accum1h_Sfc_RLatLon0.09_PT048H.grib2 2026-04-27 20:56 539K
20260427T18Z_MSC_RDPS_Snow-Accum24h_Sfc_RLatLon0.09_PT048H.grib2 2026-04-27 20:56 651K
20260427T18Z_MSC_RDPS_Snow-Accum3h_Sfc_RLatLon0.09_PT048H.grib2 2026-04-27 20:56 574K
20260427T18Z_MSC_RDPS_Snow-Accum6h_Sfc_RLatLon0.09_PT048H.grib2 2026-04-27 20:56 621K
20260427T18Z_MSC_RDPS_Snow-Accum_Sfc_RLatLon0.09_PT048H.grib2 2026-04-27 20:56 771K
20260427T18Z_MSC_RDPS_SnowDensity_Sfc_RLatLon0.09_PT048H.grib2 2026-04-27 20:56 184K
20260427T18Z_MSC_RDPS_SnowDepth_Sfc_RLatLon0.09_PT048H.grib2 2026-04-27 20:56 699K
20260427T18Z_MSC_RDPS_SoilTemp_DBS-0to10cm_RLatLon0.09_PT048H.grib2 2026-04-27 20:56 235K
20260427T18Z_MSC_RDPS_SoilTemp_Sfc_RLatLon0.09_PT048H.grib2 2026-04-27 20:56 294K
20260427T18Z_MSC_RDPS_SoilVolumetricIceContent_Sfc_RLatLon0.09_PT048H.grib2 2026-04-27 20:56 165K
20260427T18Z_MSC_RDPS_SoilVolumetricWaterContent_DBS-0to10cm_RLatLon0.09_PT048H.grib2 2026-04-27 20:56 265K
20260427T18Z_MSC_RDPS_SoilVolumetricWaterContent_DBS-0to1cm_RLatLon0.09_PT048H.grib2 2026-04-27 20:56 336K
20260427T18Z_MSC_RDPS_SpecificHumidity_AGL-120m_RLatLon0.09_PT048H.grib2 2026-04-27 20:56 496K
20260427T18Z_MSC_RDPS_SpecificHumidity_AGL-2m_RLatLon0.09_PT048H.grib2 2026-04-27 20:56 664K
20260427T18Z_MSC_RDPS_SpecificHumidity_AGL-40m_RLatLon0.09_PT048H.grib2 2026-04-27 20:56 501K
20260427T18Z_MSC_RDPS_SpecificHumidity_AGL-80m_RLatLon0.09_PT048H.grib2 2026-04-27 20:56 498K
20260427T18Z_MSC_RDPS_SpecificHumidity_IsbL-0001_RLatLon0.09_PT048H.grib2 2026-04-27 20:56 358K
20260427T18Z_MSC_RDPS_SpecificHumidity_IsbL-0005_RLatLon0.09_PT048H.grib2 2026-04-27 20:56 357K
20260427T18Z_MSC_RDPS_SpecificHumidity_IsbL-0010_RLatLon0.09_PT048H.grib2 2026-04-27 20:56 396K
20260427T18Z_MSC_RDPS_SpecificHumidity_IsbL-0020_RLatLon0.09_PT048H.grib2 2026-04-27 20:56 386K
20260427T18Z_MSC_RDPS_SpecificHumidity_IsbL-0030_RLatLon0.09_PT048H.grib2 2026-04-27 20:56 477K
20260427T18Z_MSC_RDPS_SpecificHumidity_IsbL-0050_RLatLon0.09_PT048H.grib2 2026-04-27 20:56 456K
20260427T18Z_MSC_RDPS_SpecificHumidity_IsbL-0100_RLatLon0.09_PT048H.grib2 2026-04-27 20:56 428K
20260427T18Z_MSC_RDPS_SpecificHumidity_IsbL-0150_RLatLon0.09_PT048H.grib2 2026-04-27 20:56 481K
20260427T18Z_MSC_RDPS_SpecificHumidity_IsbL-0175_RLatLon0.09_PT048H.grib2 2026-04-27 20:56 436K
20260427T18Z_MSC_RDPS_SpecificHumidity_IsbL-0200_RLatLon0.09_PT048H.grib2 2026-04-27 20:56 452K
20260427T18Z_MSC_RDPS_SpecificHumidity_IsbL-0225_RLatLon0.09_PT048H.grib2 2026-04-27 20:56 457K
20260427T18Z_MSC_RDPS_SpecificHumidity_IsbL-0250_RLatLon0.09_PT048H.grib2 2026-04-27 20:56 564K
20260427T18Z_MSC_RDPS_SpecificHumidity_IsbL-0275_RLatLon0.09_PT048H.grib2 2026-04-27 20:56 480K
20260427T18Z_MSC_RDPS_SpecificHumidity_IsbL-0300_RLatLon0.09_PT048H.grib2 2026-04-27 20:56 453K
20260427T18Z_MSC_RDPS_SpecificHumidity_IsbL-0350_RLatLon0.09_PT048H.grib2 2026-04-27 20:56 567K
20260427T18Z_MSC_RDPS_SpecificHumidity_IsbL-0400_RLatLon0.09_PT048H.grib2 2026-04-27 20:56 520K
20260427T18Z_MSC_RDPS_SpecificHumidity_IsbL-0450_RLatLon0.09_PT048H.grib2 2026-04-27 20:56 566K
20260427T18Z_MSC_RDPS_SpecificHumidity_IsbL-0500_RLatLon0.09_PT048H.grib2 2026-04-27 20:56 502K
20260427T18Z_MSC_RDPS_SpecificHumidity_IsbL-0550_RLatLon0.09_PT048H.grib2 2026-04-27 20:56 577K
20260427T18Z_MSC_RDPS_SpecificHumidity_IsbL-0600_RLatLon0.09_PT048H.grib2 2026-04-27 20:56 632K
20260427T18Z_MSC_RDPS_SpecificHumidity_IsbL-0650_RLatLon0.09_PT048H.grib2 2026-04-27 20:56 551K
20260427T18Z_MSC_RDPS_SpecificHumidity_IsbL-0700_RLatLon0.09_PT048H.grib2 2026-04-27 20:56 595K
20260427T18Z_MSC_RDPS_SpecificHumidity_IsbL-0750_RLatLon0.09_PT048H.grib2 2026-04-27 20:56 652K
20260427T18Z_MSC_RDPS_SpecificHumidity_IsbL-0800_RLatLon0.09_PT048H.grib2 2026-04-27 20:56 733K
20260427T18Z_MSC_RDPS_SpecificHumidity_IsbL-0850_RLatLon0.09_PT048H.grib2 2026-04-27 20:56 807K
20260427T18Z_MSC_RDPS_SpecificHumidity_IsbL-0875_RLatLon0.09_PT048H.grib2 2026-04-27 20:56 831K
20260427T18Z_MSC_RDPS_SpecificHumidity_IsbL-0900_RLatLon0.09_PT048H.grib2 2026-04-27 20:56 845K
20260427T18Z_MSC_RDPS_SpecificHumidity_IsbL-0925_RLatLon0.09_PT048H.grib2 2026-04-27 20:56 706K
20260427T18Z_MSC_RDPS_SpecificHumidity_IsbL-0950_RLatLon0.09_PT048H.grib2 2026-04-27 20:56 708K
20260427T18Z_MSC_RDPS_SpecificHumidity_IsbL-0970_RLatLon0.09_PT048H.grib2 2026-04-27 20:56 698K
20260427T18Z_MSC_RDPS_SpecificHumidity_IsbL-0985_RLatLon0.09_PT048H.grib2 2026-04-27 20:56 690K
20260427T18Z_MSC_RDPS_SpecificHumidity_IsbL-1000_RLatLon0.09_PT048H.grib2 2026-04-27 20:56 685K
20260427T18Z_MSC_RDPS_SpecificHumidity_IsbL-1015_RLatLon0.09_PT048H.grib2 2026-04-27 20:56 675K
20260427T18Z_MSC_RDPS_SpecificHumidity_Sfc_RLatLon0.09_PT048H.grib2 2026-04-27 20:56 339K
20260427T18Z_MSC_RDPS_StormRelativeHelicity_EtaL-10000_RLatLon0.09_PT048H.grib2 2026-04-27 20:56 1.1M
20260427T18Z_MSC_RDPS_StormSeverityIndex_EtaL-10000_RLatLon0.09_PT048H.grib2 2026-04-27 20:56 1.1M
20260427T18Z_MSC_RDPS_Thickness_IsbL-0850to0700_RLatLon0.09_PT048H.grib2 2026-04-27 20:56 179K
20260427T18Z_MSC_RDPS_Thickness_IsbL-1000to0500_RLatLon0.09_PT048H.grib2 2026-04-27 20:56 203K
20260427T18Z_MSC_RDPS_Thickness_IsbL-1000to0850_RLatLon0.09_PT048H.grib2 2026-04-27 20:56 191K
20260427T18Z_MSC_RDPS_TotalCloudCover_Sfc_RLatLon0.09_PT048H.grib2 2026-04-27 20:56 642K
20260427T18Z_MSC_RDPS_TotalTotalsIndex_Sfc_RLatLon0.09_PT048H.grib2 2026-04-27 20:56 2.4M
20260427T18Z_MSC_RDPS_UVIndex-ClearSky-Max24h_Sfc_RLatLon0.09_PT048H.grib2 2026-04-27 20:56 294K
20260427T18Z_MSC_RDPS_UVIndex-ClearSky_Sfc_RLatLon0.09_PT048H.grib2 2026-04-27 20:56 229K
20260427T18Z_MSC_RDPS_UVIndex-Max24h_Sfc_RLatLon0.09_PT048H.grib2 2026-04-27 20:56 640K
20260427T18Z_MSC_RDPS_UVIndex_Sfc_RLatLon0.09_PT048H.grib2 2026-04-27 20:56 521K
20260427T18Z_MSC_RDPS_UpwardLongwaveRadiationFlux_NTAtm_RLatLon0.09_PT048H.grib2 2026-04-27 20:56 383K
20260427T18Z_MSC_RDPS_UpwardShortwaveRadiationFlux_NTAtm_RLatLon0.09_PT048H.grib2 2026-04-27 20:56 548K
20260427T18Z_MSC_RDPS_VerticalVelocity_IsbL-0250_RLatLon0.09_PT048H.grib2 2026-04-27 20:56 555K
20260427T18Z_MSC_RDPS_VerticalVelocity_IsbL-0500_RLatLon0.09_PT048H.grib2 2026-04-27 20:56 541K
20260427T18Z_MSC_RDPS_VerticalVelocity_IsbL-0700_RLatLon0.09_PT048H.grib2 2026-04-27 20:56 592K
20260427T18Z_MSC_RDPS_VerticalVelocity_IsbL-0850_RLatLon0.09_PT048H.grib2 2026-04-27 20:56 695K
20260427T18Z_MSC_RDPS_VerticalWindShear_EtaL-6500_RLatLon0.09_PT048H.grib2 2026-04-27 20:56 1.2M
20260427T18Z_MSC_RDPS_WindChill_Sfc_RLatLon0.09_PT048H.grib2 2026-04-27 20:56 1.1M
20260427T18Z_MSC_RDPS_WindDir_AGL-10m_RLatLon0.09_PT048H.grib2 2026-04-27 20:56 968K
20260427T18Z_MSC_RDPS_WindDir_AGL-120m_RLatLon0.09_PT048H.grib2 2026-04-27 20:56 618K
20260427T18Z_MSC_RDPS_WindDir_AGL-40m_RLatLon0.09_PT048H.grib2 2026-04-27 20:56 637K
20260427T18Z_MSC_RDPS_WindDir_AGL-80m_RLatLon0.09_PT048H.grib2 2026-04-27 20:56 626K
20260427T18Z_MSC_RDPS_WindDir_IsbL-0001_RLatLon0.09_PT048H.grib2 2026-04-27 20:56 296K
20260427T18Z_MSC_RDPS_WindDir_IsbL-0005_RLatLon0.09_PT048H.grib2 2026-04-27 20:56 355K
20260427T18Z_MSC_RDPS_WindDir_IsbL-0010_RLatLon0.09_PT048H.grib2 2026-04-27 20:56 368K
20260427T18Z_MSC_RDPS_WindDir_IsbL-0020_RLatLon0.09_PT048H.grib2 2026-04-27 20:56 396K
20260427T18Z_MSC_RDPS_WindDir_IsbL-0030_RLatLon0.09_PT048H.grib2 2026-04-27 20:56 406K
20260427T18Z_MSC_RDPS_WindDir_IsbL-0050_RLatLon0.09_PT048H.grib2 2026-04-27 20:56 440K
20260427T18Z_MSC_RDPS_WindDir_IsbL-0100_RLatLon0.09_PT048H.grib2 2026-04-27 20:56 427K
20260427T18Z_MSC_RDPS_WindDir_IsbL-0150_RLatLon0.09_PT048H.grib2 2026-04-27 20:56 421K
20260427T18Z_MSC_RDPS_WindDir_IsbL-0175_RLatLon0.09_PT048H.grib2 2026-04-27 20:56 439K
20260427T18Z_MSC_RDPS_WindDir_IsbL-0200_RLatLon0.09_PT048H.grib2 2026-04-27 20:56 452K
20260427T18Z_MSC_RDPS_WindDir_IsbL-0225_RLatLon0.09_PT048H.grib2 2026-04-27 20:56 453K
20260427T18Z_MSC_RDPS_WindDir_IsbL-0250_RLatLon0.09_PT048H.grib2 2026-04-27 20:56 457K
20260427T18Z_MSC_RDPS_WindDir_IsbL-0275_RLatLon0.09_PT048H.grib2 2026-04-27 20:56 480K
20260427T18Z_MSC_RDPS_WindDir_IsbL-0300_RLatLon0.09_PT048H.grib2 2026-04-27 20:56 480K
20260427T18Z_MSC_RDPS_WindDir_IsbL-0350_RLatLon0.09_PT048H.grib2 2026-04-27 20:56 496K
20260427T18Z_MSC_RDPS_WindDir_IsbL-0400_RLatLon0.09_PT048H.grib2 2026-04-27 20:56 516K
20260427T18Z_MSC_RDPS_WindDir_IsbL-0450_RLatLon0.09_PT048H.grib2 2026-04-27 20:56 527K
20260427T18Z_MSC_RDPS_WindDir_IsbL-0500_RLatLon0.09_PT048H.grib2 2026-04-27 20:56 541K
20260427T18Z_MSC_RDPS_WindDir_IsbL-0550_RLatLon0.09_PT048H.grib2 2026-04-27 20:56 560K
20260427T18Z_MSC_RDPS_WindDir_IsbL-0600_RLatLon0.09_PT048H.grib2 2026-04-27 20:56 588K
20260427T18Z_MSC_RDPS_WindDir_IsbL-0650_RLatLon0.09_PT048H.grib2 2026-04-27 20:56 625K
20260427T18Z_MSC_RDPS_WindDir_IsbL-0700_RLatLon0.09_PT048H.grib2 2026-04-27 20:56 673K
20260427T18Z_MSC_RDPS_WindDir_IsbL-0750_RLatLon0.09_PT048H.grib2 2026-04-27 20:56 720K
20260427T18Z_MSC_RDPS_WindDir_IsbL-0800_RLatLon0.09_PT048H.grib2 2026-04-27 20:56 787K
20260427T18Z_MSC_RDPS_WindDir_IsbL-0850_RLatLon0.09_PT048H.grib2 2026-04-27 20:56 869K
20260427T18Z_MSC_RDPS_WindDir_IsbL-0875_RLatLon0.09_PT048H.grib2 2026-04-27 20:56 893K
20260427T18Z_MSC_RDPS_WindDir_IsbL-0900_RLatLon0.09_PT048H.grib2 2026-04-27 20:56 906K
20260427T18Z_MSC_RDPS_WindDir_IsbL-0925_RLatLon0.09_PT048H.grib2 2026-04-27 20:56 916K
20260427T18Z_MSC_RDPS_WindDir_IsbL-0950_RLatLon0.09_PT048H.grib2 2026-04-27 20:56 915K
20260427T18Z_MSC_RDPS_WindDir_IsbL-0970_RLatLon0.09_PT048H.grib2 2026-04-27 20:56 923K
20260427T18Z_MSC_RDPS_WindDir_IsbL-0985_RLatLon0.09_PT048H.grib2 2026-04-27 20:56 931K
20260427T18Z_MSC_RDPS_WindDir_IsbL-1000_RLatLon0.09_PT048H.grib2 2026-04-27 20:56 943K
20260427T18Z_MSC_RDPS_WindDir_IsbL-1015_RLatLon0.09_PT048H.grib2 2026-04-27 20:56 959K
20260427T18Z_MSC_RDPS_WindGust-Max_AGL-10m_RLatLon0.09_PT048H.grib2 2026-04-27 20:56 1.0M
20260427T18Z_MSC_RDPS_WindGust-Min_AGL-10m_RLatLon0.09_PT048H.grib2 2026-04-27 20:56 973K
20260427T18Z_MSC_RDPS_WindGust_AGL-10m_RLatLon0.09_PT048H.grib2 2026-04-27 20:56 1.0M
20260427T18Z_MSC_RDPS_WindSpeed_AGL-10m_RLatLon0.09_PT048H.grib2 2026-04-27 20:56 837K
20260427T18Z_MSC_RDPS_WindSpeed_AGL-120m_RLatLon0.09_PT048H.grib2 2026-04-27 20:56 545K
20260427T18Z_MSC_RDPS_WindSpeed_AGL-40m_RLatLon0.09_PT048H.grib2 2026-04-27 20:56 536K
20260427T18Z_MSC_RDPS_WindSpeed_AGL-80m_RLatLon0.09_PT048H.grib2 2026-04-27 20:56 534K
20260427T18Z_MSC_RDPS_WindSpeed_IsbL-0001_RLatLon0.09_PT048H.grib2 2026-04-27 20:56 339K
20260427T18Z_MSC_RDPS_WindSpeed_IsbL-0005_RLatLon0.09_PT048H.grib2 2026-04-27 20:56 295K
20260427T18Z_MSC_RDPS_WindSpeed_IsbL-0010_RLatLon0.09_PT048H.grib2 2026-04-27 20:56 306K
20260427T18Z_MSC_RDPS_WindSpeed_IsbL-0020_RLatLon0.09_PT048H.grib2 2026-04-27 20:56 326K
20260427T18Z_MSC_RDPS_WindSpeed_IsbL-0030_RLatLon0.09_PT048H.grib2 2026-04-27 20:56 321K
20260427T18Z_MSC_RDPS_WindSpeed_IsbL-0050_RLatLon0.09_PT048H.grib2 2026-04-27 20:56 350K
20260427T18Z_MSC_RDPS_WindSpeed_IsbL-0100_RLatLon0.09_PT048H.grib2 2026-04-27 20:56 483K
20260427T18Z_MSC_RDPS_WindSpeed_IsbL-0150_RLatLon0.09_PT048H.grib2 2026-04-27 20:56 385K
20260427T18Z_MSC_RDPS_WindSpeed_IsbL-0175_RLatLon0.09_PT048H.grib2 2026-04-27 20:56 411K
20260427T18Z_MSC_RDPS_WindSpeed_IsbL-0200_RLatLon0.09_PT048H.grib2 2026-04-27 20:56 449K
20260427T18Z_MSC_RDPS_WindSpeed_IsbL-0225_RLatLon0.09_PT048H.grib2 2026-04-27 20:56 456K
20260427T18Z_MSC_RDPS_WindSpeed_IsbL-0250_RLatLon0.09_PT048H.grib2 2026-04-27 20:56 460K
20260427T18Z_MSC_RDPS_WindSpeed_IsbL-0275_RLatLon0.09_PT048H.grib2 2026-04-27 20:56 478K
20260427T18Z_MSC_RDPS_WindSpeed_IsbL-0300_RLatLon0.09_PT048H.grib2 2026-04-27 20:56 473K
20260427T18Z_MSC_RDPS_WindSpeed_IsbL-0350_RLatLon0.09_PT048H.grib2 2026-04-27 20:56 485K
20260427T18Z_MSC_RDPS_WindSpeed_IsbL-0400_RLatLon0.09_PT048H.grib2 2026-04-27 20:56 465K
20260427T18Z_MSC_RDPS_WindSpeed_IsbL-0450_RLatLon0.09_PT048H.grib2 2026-04-27 20:56 463K
20260427T18Z_MSC_RDPS_WindSpeed_IsbL-0500_RLatLon0.09_PT048H.grib2 2026-04-27 20:56 463K
20260427T18Z_MSC_RDPS_WindSpeed_IsbL-0550_RLatLon0.09_PT048H.grib2 2026-04-27 20:56 463K
20260427T18Z_MSC_RDPS_WindSpeed_IsbL-0600_RLatLon0.09_PT048H.grib2 2026-04-27 20:56 590K
20260427T18Z_MSC_RDPS_WindSpeed_IsbL-0650_RLatLon0.09_PT048H.grib2 2026-04-27 20:56 609K
20260427T18Z_MSC_RDPS_WindSpeed_IsbL-0700_RLatLon0.09_PT048H.grib2 2026-04-27 20:56 632K
20260427T18Z_MSC_RDPS_WindSpeed_IsbL-0750_RLatLon0.09_PT048H.grib2 2026-04-27 20:56 706K
20260427T18Z_MSC_RDPS_WindSpeed_IsbL-0800_RLatLon0.09_PT048H.grib2 2026-04-27 20:56 754K
20260427T18Z_MSC_RDPS_WindSpeed_IsbL-0850_RLatLon0.09_PT048H.grib2 2026-04-27 20:56 813K
20260427T18Z_MSC_RDPS_WindSpeed_IsbL-0875_RLatLon0.09_PT048H.grib2 2026-04-27 20:56 831K
20260427T18Z_MSC_RDPS_WindSpeed_IsbL-0900_RLatLon0.09_PT048H.grib2 2026-04-27 20:56 843K
20260427T18Z_MSC_RDPS_WindSpeed_IsbL-0925_RLatLon0.09_PT048H.grib2 2026-04-27 20:56 854K
20260427T18Z_MSC_RDPS_WindSpeed_IsbL-0950_RLatLon0.09_PT048H.grib2 2026-04-27 20:56 853K
20260427T18Z_MSC_RDPS_WindSpeed_IsbL-0970_RLatLon0.09_PT048H.grib2 2026-04-27 20:56 853K
20260427T18Z_MSC_RDPS_WindSpeed_IsbL-0985_RLatLon0.09_PT048H.grib2 2026-04-27 20:56 850K
20260427T18Z_MSC_RDPS_WindSpeed_IsbL-1000_RLatLon0.09_PT048H.grib2 2026-04-27 20:56 847K
20260427T18Z_MSC_RDPS_WindSpeed_IsbL-1015_RLatLon0.09_PT048H.grib2 2026-04-27 20:56 839K
20260427T18Z_MSC_RDPS_WindU_AGL-10m_RLatLon0.09_PT048H.grib2 2026-04-27 20:56 432K
20260427T18Z_MSC_RDPS_WindU_AGL-120m_RLatLon0.09_PT048H.grib2 2026-04-27 20:56 415K
20260427T18Z_MSC_RDPS_WindU_AGL-40m_RLatLon0.09_PT048H.grib2 2026-04-27 20:56 534K
20260427T18Z_MSC_RDPS_WindU_AGL-80m_RLatLon0.09_PT048H.grib2 2026-04-27 20:56 416K
20260427T18Z_MSC_RDPS_WindU_IsbL-0001_RLatLon0.09_PT048H.grib2 2026-04-27 20:56 247K
20260427T18Z_MSC_RDPS_WindU_IsbL-0005_RLatLon0.09_PT048H.grib2 2026-04-27 20:56 288K
20260427T18Z_MSC_RDPS_WindU_IsbL-0010_RLatLon0.09_PT048H.grib2 2026-04-27 20:56 299K
20260427T18Z_MSC_RDPS_WindU_IsbL-0020_RLatLon0.09_PT048H.grib2 2026-04-27 20:56 354K
20260427T18Z_MSC_RDPS_WindU_IsbL-0030_RLatLon0.09_PT048H.grib2 2026-04-27 20:56 313K
20260427T18Z_MSC_RDPS_WindU_IsbL-0050_RLatLon0.09_PT048H.grib2 2026-04-27 20:56 344K
20260427T18Z_MSC_RDPS_WindU_IsbL-0100_RLatLon0.09_PT048H.grib2 2026-04-27 20:56 438K
20260427T18Z_MSC_RDPS_WindU_IsbL-0150_RLatLon0.09_PT048H.grib2 2026-04-27 20:56 401K
20260427T18Z_MSC_RDPS_WindU_IsbL-0175_RLatLon0.09_PT048H.grib2 2026-04-27 20:56 424K
20260427T18Z_MSC_RDPS_WindU_IsbL-0200_RLatLon0.09_PT048H.grib2 2026-04-27 20:56 440K
20260427T18Z_MSC_RDPS_WindU_IsbL-0225_RLatLon0.09_PT048H.grib2 2026-04-27 20:56 346K
20260427T18Z_MSC_RDPS_WindU_IsbL-0250_RLatLon0.09_PT048H.grib2 2026-04-27 20:56 349K
20260427T18Z_MSC_RDPS_WindU_IsbL-0275_RLatLon0.09_PT048H.grib2 2026-04-27 20:56 364K
20260427T18Z_MSC_RDPS_WindU_IsbL-0300_RLatLon0.09_PT048H.grib2 2026-04-27 20:56 461K
20260427T18Z_MSC_RDPS_WindU_IsbL-0350_RLatLon0.09_PT048H.grib2 2026-04-27 20:56 471K
20260427T18Z_MSC_RDPS_WindU_IsbL-0400_RLatLon0.09_PT048H.grib2 2026-04-27 20:56 469K
20260427T18Z_MSC_RDPS_WindU_IsbL-0450_RLatLon0.09_PT048H.grib2 2026-04-27 20:56 467K
20260427T18Z_MSC_RDPS_WindU_IsbL-0500_RLatLon0.09_PT048H.grib2 2026-04-27 20:56 467K
20260427T18Z_MSC_RDPS_WindU_IsbL-0550_RLatLon0.09_PT048H.grib2 2026-04-27 20:56 451K
20260427T18Z_MSC_RDPS_WindU_IsbL-0600_RLatLon0.09_PT048H.grib2 2026-04-27 20:56 460K
20260427T18Z_MSC_RDPS_WindU_IsbL-0650_RLatLon0.09_PT048H.grib2 2026-04-27 20:56 477K
20260427T18Z_MSC_RDPS_WindU_IsbL-0700_RLatLon0.09_PT048H.grib2 2026-04-27 20:56 500K
20260427T18Z_MSC_RDPS_WindU_IsbL-0750_RLatLon0.09_PT048H.grib2 2026-04-27 20:56 528K
20260427T18Z_MSC_RDPS_WindU_IsbL-0800_RLatLon0.09_PT048H.grib2 2026-04-27 20:56 569K
20260427T18Z_MSC_RDPS_WindU_IsbL-0850_RLatLon0.09_PT048H.grib2 2026-04-27 20:56 621K
20260427T18Z_MSC_RDPS_WindU_IsbL-0875_RLatLon0.09_PT048H.grib2 2026-04-27 20:56 637K
20260427T18Z_MSC_RDPS_WindU_IsbL-0900_RLatLon0.09_PT048H.grib2 2026-04-27 20:56 646K
20260427T18Z_MSC_RDPS_WindU_IsbL-0925_RLatLon0.09_PT048H.grib2 2026-04-27 20:56 653K
20260427T18Z_MSC_RDPS_WindU_IsbL-0950_RLatLon0.09_PT048H.grib2 2026-04-27 20:56 648K
20260427T18Z_MSC_RDPS_WindU_IsbL-0970_RLatLon0.09_PT048H.grib2 2026-04-27 20:56 649K
20260427T18Z_MSC_RDPS_WindU_IsbL-0985_RLatLon0.09_PT048H.grib2 2026-04-27 20:56 787K
20260427T18Z_MSC_RDPS_WindU_IsbL-1000_RLatLon0.09_PT048H.grib2 2026-04-27 20:56 785K
20260427T18Z_MSC_RDPS_WindU_IsbL-1015_RLatLon0.09_PT048H.grib2 2026-04-27 20:56 779K
20260427T18Z_MSC_RDPS_WindV_AGL-10m_RLatLon0.09_PT048H.grib2 2026-04-27 20:56 434K
20260427T18Z_MSC_RDPS_WindV_AGL-120m_RLatLon0.09_PT048H.grib2 2026-04-27 20:56 531K
20260427T18Z_MSC_RDPS_WindV_AGL-40m_RLatLon0.09_PT048H.grib2 2026-04-27 20:56 534K
20260427T18Z_MSC_RDPS_WindV_AGL-80m_RLatLon0.09_PT048H.grib2 2026-04-27 20:56 532K
20260427T18Z_MSC_RDPS_WindV_IsbL-0001_RLatLon0.09_PT048H.grib2 2026-04-27 20:56 247K
20260427T18Z_MSC_RDPS_WindV_IsbL-0005_RLatLon0.09_PT048H.grib2 2026-04-27 20:56 286K
20260427T18Z_MSC_RDPS_WindV_IsbL-0010_RLatLon0.09_PT048H.grib2 2026-04-27 20:56 300K
20260427T18Z_MSC_RDPS_WindV_IsbL-0020_RLatLon0.09_PT048H.grib2 2026-04-27 20:56 319K
20260427T18Z_MSC_RDPS_WindV_IsbL-0030_RLatLon0.09_PT048H.grib2 2026-04-27 20:56 316K
20260427T18Z_MSC_RDPS_WindV_IsbL-0050_RLatLon0.09_PT048H.grib2 2026-04-27 20:56 344K
20260427T18Z_MSC_RDPS_WindV_IsbL-0100_RLatLon0.09_PT048H.grib2 2026-04-27 20:56 336K
20260427T18Z_MSC_RDPS_WindV_IsbL-0150_RLatLon0.09_PT048H.grib2 2026-04-27 20:56 399K
20260427T18Z_MSC_RDPS_WindV_IsbL-0175_RLatLon0.09_PT048H.grib2 2026-04-27 20:56 423K
20260427T18Z_MSC_RDPS_WindV_IsbL-0200_RLatLon0.09_PT048H.grib2 2026-04-27 20:56 341K
20260427T18Z_MSC_RDPS_WindV_IsbL-0225_RLatLon0.09_PT048H.grib2 2026-04-27 20:56 345K
20260427T18Z_MSC_RDPS_WindV_IsbL-0250_RLatLon0.09_PT048H.grib2 2026-04-27 20:56 371K
20260427T18Z_MSC_RDPS_WindV_IsbL-0275_RLatLon0.09_PT048H.grib2 2026-04-27 20:56 385K
20260427T18Z_MSC_RDPS_WindV_IsbL-0300_RLatLon0.09_PT048H.grib2 2026-04-27 20:56 381K
20260427T18Z_MSC_RDPS_WindV_IsbL-0350_RLatLon0.09_PT048H.grib2 2026-04-27 20:56 365K
20260427T18Z_MSC_RDPS_WindV_IsbL-0400_RLatLon0.09_PT048H.grib2 2026-04-27 20:56 364K
20260427T18Z_MSC_RDPS_WindV_IsbL-0450_RLatLon0.09_PT048H.grib2 2026-04-27 20:56 466K
20260427T18Z_MSC_RDPS_WindV_IsbL-0500_RLatLon0.09_PT048H.grib2 2026-04-27 20:56 465K
20260427T18Z_MSC_RDPS_WindV_IsbL-0550_RLatLon0.09_PT048H.grib2 2026-04-27 20:56 467K
20260427T18Z_MSC_RDPS_WindV_IsbL-0600_RLatLon0.09_PT048H.grib2 2026-04-27 20:56 476K
20260427T18Z_MSC_RDPS_WindV_IsbL-0650_RLatLon0.09_PT048H.grib2 2026-04-27 20:56 491K
20260427T18Z_MSC_RDPS_WindV_IsbL-0700_RLatLon0.09_PT048H.grib2 2026-04-27 20:56 511K
20260427T18Z_MSC_RDPS_WindV_IsbL-0750_RLatLon0.09_PT048H.grib2 2026-04-27 20:56 523K
20260427T18Z_MSC_RDPS_WindV_IsbL-0800_RLatLon0.09_PT048H.grib2 2026-04-27 20:56 577K
20260427T18Z_MSC_RDPS_WindV_IsbL-0850_RLatLon0.09_PT048H.grib2 2026-04-27 20:56 618K
20260427T18Z_MSC_RDPS_WindV_IsbL-0875_RLatLon0.09_PT048H.grib2 2026-04-27 20:56 634K
20260427T18Z_MSC_RDPS_WindV_IsbL-0900_RLatLon0.09_PT048H.grib2 2026-04-27 20:56 645K
20260427T18Z_MSC_RDPS_WindV_IsbL-0925_RLatLon0.09_PT048H.grib2 2026-04-27 20:56 652K
20260427T18Z_MSC_RDPS_WindV_IsbL-0950_RLatLon0.09_PT048H.grib2 2026-04-27 20:56 789K
20260427T18Z_MSC_RDPS_WindV_IsbL-0970_RLatLon0.09_PT048H.grib2 2026-04-27 20:56 792K
20260427T18Z_MSC_RDPS_WindV_IsbL-0985_RLatLon0.09_PT048H.grib2 2026-04-27 20:56 790K
20260427T18Z_MSC_RDPS_WindV_IsbL-1000_RLatLon0.09_PT048H.grib2 2026-04-27 20:56 833K
20260427T18Z_MSC_RDPS_WindV_IsbL-1015_RLatLon0.09_PT048H.grib2 2026-04-27 20:56 826K